Airport Information

KSFF - Felts Fld Airport

KSFF 251053Z AUTO 04003KT 10SM OVC055 06/03 A3020 RMK AO2 SLP232 T00560033


  • General Information

  • Coordinates: N 47°40'58"/ W 117°19'21"
  • Location: N/A
  • Surveyed Elevation: 1953 MSL

Operations

Flow Name Active Runways Conditions

Green background denotes normal operations.


Common Frequencies

Callsign Frequency Position Name
SFF_GND 121.700 Felts Ground
SFF_TWR 132.500 Felts Tower
KSFF_ATIS 120.550 Felts Field ATIS

More at the Document Center


Charts

Name Description Cycle
FELTS FOUR Page 1 1903
HAYDEN FOUR Page 1 1903
Name Description Cycle
HILIE TWO Page 1 1903
ZOOMR ONE Page 1 1903